Location: Hurstbourne Priors
(51.2000°N, 1.3667°W)
Time: 22:32:52
(UTC+00:00)

Altair - Pass Details

Date: 17 April 2021
Orbit: 1501 x 1683 km, 47.2° (Epoch: 13 May)

Event Time Altitude Azimuth Distance (km) Brightness Sun altitude
Rises 12:24:31 0° 286° (WNW) 4,741 10.0 49.3°
Reaches altitude 10° 12:27:51 10° 279° (W) 3,731 9.7 49.2°
Maximum altitude 12:36:16 39° 215° (SW) 2,123 10.0 49.0°
Drops below altitude 10° 12:44:31 10° 150° (SSE) 3,646 10.1 48.7°
Sets 12:47:44 0° 143° (SE) 4,622 10.4 48.5°
